Weather History for Deadhorse, AK

Change the Weather History Date:

Tuesday, July 23, 2013

  Actual Average Record
Temperature  
Mean Temperature 52 °F -  
Max Temperature 63 °F 53 °F 78 °F (2001)
Min Temperature 42 °F 38 °F 30 °F (1999)
Degree Days  
Heating Degree Days 12    
Growing Degree Days 2 (Base 50)    
Moisture  
Dew Point 47 °F    
Average Humidity 89    
Maximum Humidity 97    
Minimum Humidity 72    
Precipitation  
Precipitation 0.35 in - - ()
Sea Level Pressure  
Sea Level Pressure 29.98 in    
Wind  
Wind Speed 12 mph (WNW)    
Max Wind Speed 18 mph    
Max Gust Speed 25 mph    
Visibility 8 miles    
Events Rain    
Averages and records for this station are not official NWS values.
T = Trace of Precipitation, MM = Missing Value Source: NWS Daily Summary

Daily Weather History Graph

Daily Weather History Graph

Search for Another Location

Airport:

Trip Planner

Search our weather history database for the weather conditions in past years. The results will help you decide how hot, cold, wet, or windy it might be!

Date:

Astronomy

Jul. 23, 2013 Rise Set
Actual Time 2:32 AM AKDT 1:27 AM AKDT
Civil Twilight Sun does not rise Sun does not rise
Nautical Twilight Sun does not rise Sun does not rise
Astronomical Twilight Sun does not rise Sun does not rise
Moon 11:09 PM AKDT (7/23) 6:11 AM AKDT (7/23)
Length of Visible Light 24h 00m
Length of Day
22h 55m
Full, 98% of the Moon is Illuminated
Jul 23
Full
Jul 29
Last Quarter
Aug 6
New
Aug 14
First Quarter
Aug 20
Full

Hourly Weather History & Observations

Time (AKDT) Temp. Windchill Dew Point Humidity Pressure Visibility Wind Dir Wind Speed Gust Speed Precip Events Conditions
12:53 AM 63.0 °F - 54.0 °F 72% 29.89 in 10.0 mi SW 17.3 mph - N/A   Overcast
1:53 AM 62.1 °F - 53.1 °F 72% 29.89 in 10.0 mi SW 15.0 mph - N/A   Overcast
2:53 AM 61.0 °F - 53.1 °F 75% 29.90 in 10.0 mi WSW 12.7 mph - N/A   Overcast
3:53 AM 59.0 °F - 53.1 °F 81% 29.91 in 10.0 mi SW 13.8 mph - N/A   Overcast
4:53 AM 59.0 °F - 53.1 °F 81% 29.91 in 10.0 mi SW 15.0 mph - 0.00 in   Mostly Cloudy
5:11 AM 59.0 °F - 53.6 °F 82% 29.91 in 10.0 mi WSW 13.8 mph - N/A   Overcast
5:53 AM 59.0 °F - 53.1 °F 81% 29.91 in 10.0 mi WSW 13.8 mph - N/A   Overcast
6:53 AM 57.9 °F - 53.1 °F 84% 29.92 in 10.0 mi WSW 10.4 mph - 0.00 in Rain Light Rain
7:53 AM 57.0 °F - 54.0 °F 89% 29.93 in 10.0 mi West 10.4 mph - 0.01 in Rain Light Rain
8:09 AM 57.2 °F - 53.6 °F 88% 29.92 in 6.2 mi WSW 11.5 mph - 0.01 in Rain Light Rain
8:53 AM 55.9 °F - 54.0 °F 93% 29.93 in 5.0 mi West 18.4 mph - 0.02 in Rain Light Rain
9:53 AM 55.0 °F - 53.1 °F 93% 29.95 in 3.0 mi West 17.3 mph 25.3 mph 0.03 in Rain Rain
10:04 AM 50.0 °F - 48.2 °F 94% 29.95 in - West 13.8 mph 25.3 mph 0.01 in Rain Light Rain
10:53 AM 48.0 °F - 46.9 °F 96% 29.97 in 5.0 mi NW 12.7 mph - 0.03 in Rain Light Rain
11:53 AM 46.9 °F - 45.0 °F 93% 29.97 in 5.0 mi NW 9.2 mph - 0.04 in Rain Light Rain
12:51 PM 46.4 °F 40.7 °F 44.6 °F 93% 29.98 in - NW 12.7 mph - 0.00 in   Overcast
12:53 PM 46.9 °F - 45.0 °F 93% 29.99 in 2.0 mi NW 12.7 mph - 0.00 in   Overcast
1:53 PM 46.9 °F - 46.0 °F 97% 29.99 in 2.0 mi NW 8.1 mph - N/A   Overcast
2:30 PM 46.4 °F 41.5 °F 44.6 °F 93% 30.00 in 5.0 mi NNW 10.4 mph - 0.02 in Rain Light Rain
2:53 PM 46.9 °F - 45.0 °F 93% 30.01 in 5.0 mi NNW 10.4 mph - 0.03 in Rain Light Rain
3:53 PM 46.9 °F - 44.1 °F 90% 30.02 in 5.0 mi NW 10.4 mph - 0.02 in Rain Light Rain
4:53 PM 46.9 °F - 45.0 °F 93% 30.02 in 7.0 mi NNW 6.9 mph - 0.04 in Rain Light Rain
5:53 PM 46.0 °F 41.9 °F 44.1 °F 93% 30.03 in 10.0 mi NNW 8.1 mph - 0.02 in   Overcast
6:53 PM 44.1 °F 38.6 °F 43.0 °F 96% 30.03 in 6.0 mi NNW 10.4 mph - 0.02 in Rain Light Rain
7:29 PM 44.6 °F 41.4 °F 42.8 °F 93% 30.03 in 10.0 mi NW 5.8 mph - 0.00 in Rain Light Rain
7:36 PM 44.6 °F 39.7 °F 42.8 °F 93% 30.03 in 10.0 mi NW 9.2 mph - 0.01 in Rain Light Rain
7:38 PM 44.6 °F 40.7 °F 42.8 °F 93% 30.03 in 10.0 mi NNW 6.9 mph - 0.01 in Rain Light Rain
7:53 PM 44.1 °F 39.5 °F 42.1 °F 93% 30.03 in 10.0 mi NNW 8.1 mph - 0.01 in   Overcast
8:00 PM 44.6 °F 40.7 °F 41.0 °F 87% 30.03 in 10.0 mi NNW 6.9 mph - 0.00 in Rain Light Rain
8:53 PM 43.0 °F 38.8 °F 39.9 °F 89% 30.03 in 10.0 mi NNW 6.9 mph - 0.01 in Rain Light Rain
9:01 PM 42.8 °F 38.6 °F 39.2 °F 87% 30.03 in 10.0 mi NNW 6.9 mph - 0.00 in Rain Light Rain
9:41 PM 42.8 °F 39.3 °F 39.2 °F 87% 30.03 in 10.0 mi NW 5.8 mph - 0.01 in Rain Light Rain
9:53 PM 43.0 °F 41.3 °F 39.9 °F 89% 30.03 in 10.0 mi WNW 3.5 mph - 0.01 in Rain Light Rain
10:53 PM 42.1 °F 40.2 °F 39.9 °F 92% 30.01 in 10.0 mi SSW 3.5 mph - 0.04 in Rain Light Rain
11:53 PM 43.0 °F 40.3 °F 41.0 °F 93% 30.01 in 10.0 mi SSW 4.6 mph - 0.02 in Rain Light Rain